Stations météo

réclame
Mon MeteoGroup
Saint-Quentin, France (7061): Température de l'air & dewpoint: 14.11.2017 12:00:00 - 20.11.2017 12:00:00 (CET)Saint-Quentin, France (7061): Température de l'air 5cm: 14.11.2017 12:00:00 - 20.11.2017 12:00:00 (CET)Saint-Quentin, France (7061): Température de l'air -20cm & Température de l'air -100cm: 14.11.2017 12:00:00 - 20.11.2017 12:00:00 (CET)Saint-Quentin, France (7061): Vitesse du vent & gusts: 14.11.2017 12:00:00 - 20.11.2017 12:00:00 (CET)Saint-Quentin, France (7061): Direction du vent: 14.11.2017 12:00:00 - 20.11.2017 12:00:00 (CET)Saint-Quentin, France (7061): reduced air pressure: 14.11.2017 12:00:00 - 20.11.2017 12:00:00 (CET)Saint-Quentin, France (7061): visibility: 14.11.2017 12:00:00 - 20.11.2017 12:00:00 (CET)Saint-Quentin, France (7061): Ensoleillement: 14.11.2017 12:00:00 - 20.11.2017 12:00:00 (CET)Saint-Quentin, France (7061): Quantités de précipitations: 14.11.2017 12:00:00 - 20.11.2017 12:00:00 (CET)
Date & Time tt [°C] td [°C] tt 5cm [°C] tt -20cm [°C] tt -100cm [°C] ff [km/h] ff [knt] fx [km/h] fx [knt] dd ppp [hPa] vv [km] sd [min] rr [mm]
20.11.2017 12:00:00 6,2 5,6 5,6 7,7 11,1 21 11 31 17 SSW 1020,4 8 0 0,0
20.11.2017 11:00:00 5,4 5,0 5,1 7,8 11,1 19 11 27 15 SSW 1020,9 10 0 0,2
20.11.2017 10:00:00 4,6 4,2 3,2 7,8 11,1 13 7 20 11 SSW 1021,4 9 0 0,0
20.11.2017 09:00:00 2,8 2,7 1,0 7,8 11,1 5 3 7 4 S 1022,0 9 0 0,0
20.11.2017 08:00:00 0,9 0,6 0,1 7,9 11,1 5 3 9 5 SSE 1022,3 6 0 0,0
20.11.2017 07:00:00 0,8 0,7 -1,1 8,0 11,1 7 4 10 5 S 1022,6 6 0 0,0
20.11.2017 06:00:00 -0,2 -0,5 -2,5 8,0 11,1 8 4 9 5 S 1022,7 3,9 0 0,0
20.11.2017 05:00:00 -0,2 -0,5 -2,8 8,1 11,1 4 2 7 4 SSE 1023,2 3,4 0 0,0
20.11.2017 04:00:00 -0,3 -0,6 -3,6 8,2 11,2 3 2 7 4 ESE 1023,7 7 0 0,0
20.11.2017 03:00:00 -0,4 -0,8 -4,4 8,3 11,2 4 2 7 4 SE 1023,8 8 0 0,0
20.11.2017 02:00:00 -0,5 -1,1 -4,8 8,4 11,2 3 2 8 4 SSW 1024,6 9 0 0,0
20.11.2017 01:00:00 0,4 0,0 -4,5 8,4 11,2 5 3 7 4 WSW 1025,0 15 0 0,0
20.11.2017 00:00:00 -0,1 -0,5 -5,1 8,5 11,1 3 2 5 3 SSW 1025,3 9 0 0,0
19.11.2017 23:00:00 0,5 -0,1 -5,5 8,5 11,2 2 1 6 4 W 1025,6 13 0 0,0
19.11.2017 22:00:00 0,7 0,3 -5,4 8,6 11,2 5 3 7 4 SSW 1025,2 14 0 0,0
19.11.2017 21:00:00 0,6 -0,1 -4,1 8,6 11,2 2 1 8 5 S 1025,2 19 0 0,0
19.11.2017 20:00:00 1,6 0,7 -3,9 8,6 11,2 3 2 7 4 WSW 1025,2 20 0 0,0
19.11.2017 19:00:00 2,3 0,5 -2,9 8,7 11,2 3 2 7 4 WNW 1024,8 20 0 0,0
19.11.2017 18:00:00 3,6 1,6 -1,8 8,7 11,2 6 3 9 5 W 1024,3 20 0 0,0
19.11.2017 17:00:00 5,1 2,4 0,4 8,6 11,2 5 3 16 9 WNW 1023,9 20 43 0,0
19.11.2017 16:00:00 7,1 2,0 6,9 8,6 11,2 13 7 22 12 NW 1023,5 20 60 0,0
19.11.2017 15:00:00 7,8 3,8 11,1 8,6 11,2 14 7 22 12 WNW 1023,5 20 60 0,0
19.11.2017 14:00:00 7,6 3,3 10,6 8,6 11,2 11 6 21 11 W 1023,4 20 60 0,0
19.11.2017 13:00:00 7,2 2,7 10,1 8,6 11,3 12 6 22 12 NW 1023,5 20 60 0,0
19.11.2017 12:00:00 7,1 3,3 9,9 8,6 11,2 14 7 22 12 NW 1023,2 20 60 0,0
19.11.2017 11:00:00 6,1 3,4 7,4 8,7 11,3 14 8 23 12 NW 1023,2 19 60 0,0
19.11.2017 10:00:00 4,3 3,6 1,6 8,7 11,3 12 6 16 9 NW 1022,7 18 60 0,0
19.11.2017 09:00:00 2,3 2,0 0,0 8,8 11,3 10 5 16 8 WNW 1022,4 7 29 0,0
19.11.2017 08:00:00 2,4 2,0 0,7 8,8 11,3 12 7 18 10 WNW 1021,5 7 0 0,0
19.11.2017 07:00:00 3,1 2,7 1,1 8,8 11,3 11 6 15 8 WNW 1020,9 6 0 0,0
19.11.2017 06:00:00 4,5 4,2 2,8 8,8 11,3 11 6 17 9 WNW 1020,5 8 0 0,0
19.11.2017 05:00:00 4,9 4,8 2,6 8,8 11,3 11 6 15 8 WNW 1020,1 4,3 0 0,0
19.11.2017 04:00:00 5,0 4,7 3,2 8,8 11,3 10 6 15 8 WNW 1019,8 4,0 0 0,0
19.11.2017 03:00:00 6,1 5,8 5,0 8,8 11,3 10 6 15 8 WNW 1019,6 10 0 0,0
19.11.2017 02:00:00 6,7 6,4 6,4 8,8 11,3 10 5 13 7 W 1019,6 13 0 0,2
19.11.2017 01:00:00 6,9 6,5 6,6 8,8 11,3 7 4 16 9 NW 1019,4 4,0 0 1,9
19.11.2017 00:00:00 7,1 6,5 6,8 8,8 11,3 11 6 27 15 N 1019,4 4,5 0 2,2
18.11.2017 23:00:00 7,9 7,3 7,1 8,8 11,3 14 7 27 15 W 1019,3 4,3 0 1,0
18.11.2017 22:00:00 7,7 6,6 7,0 8,7 11,3 18 10 36 20 W 1019,5 7 0 1,2
18.11.2017 21:00:00 7,8 6,1 7,4 8,7 11,3 26 14 37 20 WSW 1019,7 20 0 0,0
18.11.2017 20:00:00 7,7 5,8 7,4 8,7 11,3 24 13 38 21 WSW 1020,3 17 0 0,0
18.11.2017 19:00:00 7,7 5,8 7,0 8,7 11,3 24 13 33 18 WSW 1021,0 17 0 0,0
18.11.2017 18:00:00 7,3 5,4 6,8 8,7 11,3 20 11 30 16 SW 1021,6 15 0 0,0
18.11.2017 17:00:00 7,3 5,6 7,0 8,6 11,3 16 9 27 14 SW 1022,0 14 0 0,0
18.11.2017 16:00:00 7,7 5,0 7,6 8,6 11,3 20 11 27 15 WSW 1022,4 19 38 0,0
18.11.2017 15:00:00 7,8 5,3 8,6 8,6 11,3 19 10 31 17 SW 1022,9 16 42 0,0
18.11.2017 14:00:00 7,8 4,7 9,0 8,6 11,3 15 8 27 15 W 1023,8 20 10 0,0
18.11.2017 13:00:00 8,0 4,8 7,3 8,7 11,3 19 10 29 16 W 1024,5 18 37 0,0
18.11.2017 12:00:00 5,8 4,8 5,6 8,7 11,3 11 6 17 9 SW 1025,3 12 3 0,0
18.11.2017 11:00:00 3,5 3,1 2,5 8,7 11,3 5 3 8 5 WSW 1025,6 9 0 0,0
18.11.2017 10:00:00 1,8 1,4 0,8 8,8 11,3 4 2 10 5 S 1025,8 7 0 0,0
18.11.2017 09:00:00 1,2 1,1 0,1 8,9 11,3 7 4 9 5 W 1026,0 7 0 0,0
18.11.2017 08:00:00 0,3 0,0 -0,6 9,0 11,3 0 0 9 5 N 1025,5 5 0 0,0
18.11.2017 07:00:00 -0,1 -0,4 -3,1 9,1 11,3 0 0 8 4 N 1025,4 5 0 0,0
18.11.2017 06:00:00 -0,7 -1,0 -4,2 9,2 11,3 4 2 7 4 SSE 1025,6 3,5 0 0,0
18.11.2017 05:00:00 -0,2 -0,5 -5,5 9,3 11,3 4 2 7 4 WSW 1026,0 4,1 0 0,0
18.11.2017 04:00:00 -1,0 -1,4 -5,5 9,4 11,3 0 0 4 2 N 1026,5 5 0 0,0
18.11.2017 03:00:00 -1,4 -2,0 -5,2 9,5 11,3 2 1 8 5 WSW 1026,9 6 0 0,0
18.11.2017 02:00:00 -0,1 -0,7 -5,3 9,5 11,3 4 2 5 3 W 1027,2 11 0 0,0
18.11.2017 01:00:00 0,0 -1,0 -4,7 9,6 11,3 0 0 5 3 N 1027,3 16 0 0,0
18.11.2017 00:00:00 0,6 -1,0 -3,3 9,7 11,3 5 3 9 5 N 1027,7 18 0 0,0
17.11.2017 23:00:00 1,3 0,1 -3,4 9,7 11,3 5 3 6 4 NNW 1027,8 18 0 0,0
17.11.2017 22:00:00 1,7 0,5 -2,9 9,8 11,3 0 0 5 3 N 1027,6 19 0 0,0
17.11.2017 21:00:00 2,4 0,9 -2,3 9,8 11,3 4 2 6 3 N 1027,8 17 0 0,0
17.11.2017 20:00:00 2,8 0,5 -1,7 9,9 11,3 3 2 9 5 NE 1027,7 20 0 0,0
17.11.2017 19:00:00 4,5 1,7 0,3 9,9 11,3 6 3 8 4 N 1028,1 20 0 0,0
17.11.2017 18:00:00 5,8 2,1 1,6 9,9 11,3 5 3 10 6 N 1027,7 20 0 0,0
17.11.2017 17:00:00 7,1 3,2 3,5 9,9 11,3 6 3 11 6 N 1027,7 20 38 0,0
17.11.2017 16:00:00 9,1 3,3 10,4 9,8 11,3 8 4 19 10 NNE 1027,7 20 60 0,0
17.11.2017 15:00:00 9,8 3,3 10,5 9,8 11,3 11 6 19 10 NNE 1027,6 20 53 0,0
17.11.2017 14:00:00 9,5 5,3 10,0 9,7 11,3 9 5 18 10 NNE 1027,8 20 43 0,0
17.11.2017 13:00:00 10,0 6,0 10,4 9,7 11,3 14 8 22 12 NE 1027,7 20 20 0,0
17.11.2017 12:00:00 9,5 6,8 10,1 9,7 11,3 12 6 21 11 NNE 1028,2 19 1 0,0
17.11.2017 11:00:00 9,1 7,4 8,7 9,7 11,3 10 5 15 8 NNE 1028,4 9 18 0,0
17.11.2017 10:00:00 8,5 7,6 8,6 9,7 11,3 9 5 18 10 NNE 1028,2 7 0 0,0
17.11.2017 09:00:00 8,3 7,5 7,9 9,7 11,3 11 6 19 10 NNE 1028,0 8 0 0,0
17.11.2017 08:00:00 8,3 7,7 7,9 9,7 11,3 12 6 22 12 NNE 1027,4 7 0 0,0
17.11.2017 07:00:00 8,5 8,1 8,3 9,7 11,3 14 7 22 12 NNE 1027,0 4,7 0 0,0
17.11.2017 06:00:00 8,6 8,2 8,5 9,7 11,3 13 7 21 11 NNE 1026,7 3,6 0 0,0
17.11.2017 05:00:00 8,5 8,4 7,9 9,7 11,3 7 4 11 6 N 1026,5 0,5 0 0,0
17.11.2017 04:00:00 7,8 7,7 5,4 9,7 11,4 3 2 7 4 NNW 1026,4 1,8 0 0,0
17.11.2017 03:00:00 7,5 7,2 4,7 9,7 11,4 3 1 10 5 WNW 1026,3 1,6 0 0,0
17.11.2017 02:00:00 8,1 7,8 6,1 9,7 11,4 5 3 8 5 NNW 1026,1 2,8 0 0,0
17.11.2017 01:00:00 7,8 7,4 6,9 9,7 11,4 5 3 8 4 W 1025,9 2,8 0 0,0
17.11.2017 00:00:00 8,2 7,8 7,6 9,7 11,4 5 3 8 4 SW 1025,9 4,0 0 0,0
16.11.2017 23:00:00 8,2 7,8 7,4 9,7 11,3 5 3 7 4 SW 1026,0 6 0 0,0
16.11.2017 22:00:00 8,3 7,9 8,0 9,6 11,3 2 1 6 3 SW 1026,0 4,6 0 0,0
16.11.2017 21:00:00 8,4 8,0 8,1 9,7 11,4 0 0 0 0 N 1025,7 3,8 0 0,0
16.11.2017 20:00:00 8,4 8,0 8,1 9,6 11,4 0 0 10 5 N 1025,4 4,2 0 0,0
16.11.2017 19:00:00 8,4 8,0 8,2 9,6 11,4 6 4 10 5 S 1024,8 4,1 0 0,0
16.11.2017 18:00:00 8,5 8,1 8,2 9,6 11,4 6 3 8 4 S 1024,7 1,3 0 0,2
16.11.2017 17:00:00 8,8 7,7 8,3 9,5 11,4 7 4 11 6 SW 1024,5 2,5 0 0,0
16.11.2017 16:00:00 9,5 7,1 9,5 9,5 11,4 7 4 13 7 SW 1024,3 18 0 0,0
16.11.2017 15:00:00 9,7 7,0 10,7 9,5 11,4 8 4 12 7 SW 1024,1 18 0 0,0
16.11.2017 14:00:00 9,6 7,0 10,9 9,4 11,4 7 4 13 7 SW 1024,3 17 1 0,0
16.11.2017 13:00:00 9,7 7,1 10,7 9,4 11,4 8 5 13 7 SW 1024,7 20 1 0,0
16.11.2017 12:00:00 8,9 6,3 9,9 9,4 11,4 7 4 12 7 S 1024,8 15 0 0,0
16.11.2017 11:00:00 8,2 6,8 9,4 9,4 11,4 9 5 13 7 S 1025,2 12 1 0,0
16.11.2017 10:00:00 7,6 7,2 4,6 9,4 11,4 7 4 10 5 S 1025,0 7 14 0,2
16.11.2017 09:00:00 6,8 6,7 6,0 9,4 11,4 6 3 8 4 SSE 1024,6 2,3 0 0,0
16.11.2017 08:00:00 6,9 6,8 6,5 9,4 11,4 6 3 8 4 S 1024,2 4,2 0 0,0
16.11.2017 07:00:00 6,9 6,8 5,8 9,4 11,4 4 2 7 4 S 1024,2 3,2 0 0,0
16.11.2017 06:00:00 6,7 6,6 5,8 9,4 11,4 4 2 12 6 ESE 1024,0 2,5 0 0,0
16.11.2017 05:00:00 6,5 6,4 5,7 9,4 11,4 7 4 12 6 SE 1024,1 2,4 0 0,0
16.11.2017 04:00:00 7,0 6,9 5,8 9,4 11,4 6 3 10 5 S 1024,4 2,2 0 0,0
16.11.2017 03:00:00 7,2 7,1 6,6 9,4 11,4 8 4 13 7 SE 1024,6 3,2 0 0,0
16.11.2017 02:00:00 7,7 7,6 7,5 9,4 11,5 9 5 14 7 SSE 1025,0 3,5 0 0,0
16.11.2017 01:00:00 7,8 7,8 7,7 9,4 11,4 8 4 13 7 SSE 1025,1 2,1 0 0,0
16.11.2017 00:00:00 7,9 7,9 7,9 9,4 11,5 9 5 11 6 SE 1025,4 1,2 0 0,0
15.11.2017 23:00:00 7,9 7,9 7,8 9,3 11,4 7 4 10 5 SE 1025,5 0,4 0 0,0
15.11.2017 22:00:00 8,0 8,0 7,8 9,3 11,5 6 3 10 5 SSE 1025,7 0,4 0 0,0
15.11.2017 21:00:00 7,9 7,8 7,8 9,3 11,5 6 4 12 7 S 1025,9 0,4 0 0,0
15.11.2017 20:00:00 7,8 7,7 7,8 9,3 11,5 10 5 12 6 ESE 1025,6 0,2 0 0,0
15.11.2017 19:00:00 7,9 7,8 7,9 9,2 11,5 9 5 11 6 ESE 1025,7 0,2 0 0,0
15.11.2017 18:00:00 8,5 8,2 8,5 9,2 11,5 8 4 13 7 SE 1025,8 3,3 0 0,0
15.11.2017 17:00:00 8,6 8,3 8,6 9,2 11,5 8 4 10 6 SSE 1025,6 2,6 0 0,0
15.11.2017 16:00:00 8,8 8,5 9,3 9,1 11,5 7 4 10 5 SSE 1025,9 3,3 0 0,0
15.11.2017 15:00:00 8,5 8,2 9,1 9,1 11,5 7 4 9 5 SSE 1025,9 3,3 0 0,0
15.11.2017 14:00:00 8,2 8,1 9,1 9,1 11,5 6 4 14 8 SSE 1026,1 3,7 0 0,0
15.11.2017 13:00:00 8,2 8,1 9,6 9,1 11,5 10 5 13 7 SSE 1026,4 2,0 0 0,0
15.11.2017 12:00:00 8,0 7,9 8,5 9,0 11,5 8 4 13 7 SSE 1026,8 2,1 0 0,0
15.11.2017 11:00:00 7,3 7,3 7,6 9,0 11,5 10 5 12 7 SSE 1026,9 1,4 0 0,0
15.11.2017 10:00:00 6,8 6,8 6,9 9,0 11,5 7 4 9 5 SSE 1027,1 1,8 0 0,0
15.11.2017 09:00:00 6,5 6,5 6,5 9,0 11,5 4 2 8 4 SSE 1026,9 1,4 0 0,0
15.11.2017 08:00:00 6,4 6,4 6,4 9,0 11,5 6 4 13 7 S 1026,6 1,0 0 0,4
15.11.2017 07:00:00 6,5 6,4 6,5 9,0 11,5 10 5 14 7 S 1026,2 1,0 0 0,2
15.11.2017 06:00:00 6,7 6,6 6,8 9,0 11,6 8 4 10 5 SSE 1026,0 0,8 0 0,4
15.11.2017 05:00:00 6,8 6,7 6,9 9,0 11,6 6 3 10 6 SSE 1026,2 0,6 0 0,4
15.11.2017 04:00:00 7,0 6,9 6,9 9,0 11,6 3 2 10 6 S 1026,4 0,8 0 0,2
15.11.2017 03:00:00 6,9 6,8 6,7 9,0 11,6 8 4 11 6 S 1026,8 1,2 0 0,2
15.11.2017 02:00:00 6,7 6,6 6,6 8,9 11,6 8 4 10 6 S 1026,8 0,7 0 0,4
15.11.2017 01:00:00 6,7 6,4 6,6 8,9 11,6 7 4 11 6 S 1026,8 1,7 0 0,0
15.11.2017 00:00:00 6,8 6,4 6,5 8,9 11,6 9 5 13 7 S 1026,9 6 0 0,0
14.11.2017 23:00:00 7,0 6,1 6,6 8,9 11,6 10 5 14 8 S 1026,9 6 0 0,0
14.11.2017 22:00:00 7,4 5,7 7,0 8,9 11,6 9 5 14 7 S 1026,9 19 0 0,0
14.11.2017 21:00:00 7,8 5,3 7,1 8,9 11,6 8 5 18 10 WSW 1026,8 20 0 0,0
14.11.2017 20:00:00 7,6 5,1 7,1 8,8 11,6 9 5 14 8 SSW 1026,8 20 0 0,0
14.11.2017 19:00:00 7,6 4,9 6,7 8,8 11,6 10 6 13 7 SSW 1026,6 20 0 0,0
14.11.2017 18:00:00 7,1 5,6 6,4 8,8 11,6 6 4 14 8 SSW 1026,3 20 0 0,0
14.11.2017 17:00:00 7,6 4,9 6,8 8,8 11,6 8 4 16 9 SSW 1026,1 20 0 0,0
14.11.2017 16:00:00 8,6 4,8 8,9 8,7 11,6 14 7 21 11 SSW 1026,1 20 0 0,0
14.11.2017 15:00:00 8,5 5,2 9,0 8,7 11,6 17 9 25 13 WSW 1026,2 20 0 0,0
14.11.2017 14:00:00 8,4 4,6 9,4 8,6 11,6 18 10 26 14 WSW 1026,6 20 2 0,0
14.11.2017 13:00:00 8,9 6,3 9,5 8,7 11,7 13 7 19 11 WSW 1026,6 20 0 0,0
14.11.2017 12:00:00 7,8 5,4 9,5 8,7 11,7 12 7 20 11 SW 1026,9 20 1 0,0

tt = Température de l'air
td = dewpoint
tt 5cm = Température de l'air 5cm
tt -20cm = Température de l'air -20cm
tt -100cm = Température de l'air -100cm
ff = Vitesse du vent
fx = gusts
dd = Direction du vent
ppp = reduced air pressure
vv = visibility
sd = Ensoleillement
rr = Quantités de précipitations

stations d'obs. à proximité